Regional Weather Roundup
Issued by NWS

Home | Current Version | Previous Version | Text Only | Print | Product List | Glossary Off
Versions: 1 2 3 4 5 6 7 8 9 10 11 12 13 14 15 16 17 18 19 20 21 22 23 24 25 26 27 28 29 30 31 32 33 34 35 36 37 38 39 40 41 42 43 44 45 46 47 48 49 50

000
ASUS45 KABQ 062001
RWRNM
WEATHER ROUNDUP FOR NEW MEXICO
NATIONAL WEATHER SERVICE ALBUQUERQUE NM
200 PM MDT WED MAY 06 2015

NOTE: "FAIR" MEANS FEW OR NO CLOUDS BELOW 12,000 FEET AGL WITH NO
       SIGNIFICANT WEATHER OR OBSTRUCTIONS TO VISION.

      THIS PRODUCT IS RELEASED AS TWO VERSIONS.  ONE VERSION NEAR
      THE TOP OF THE HOUR CONTAINING PRELIMINARY DATA FROM ALBUQUERQUE
      AND OTHER STATIONS.  A FINAL VERSION WITH ADDITIONAL DATA IS
      ISSUED ABOUT 10 MINUTES AFTER THE HOUR.

NMZ501-503-504-510>518-062100-
NORTHWEST PLATEAU/NORTHCENTRAL MOUNTAINS

CITY           SKY/WX    TMP DP  RH WIND       PRES   REMARKS
FARMINGTON     MOSUNNY   66  38  35 NW13G22   29.86F
SANTA FE       MOSUNNY   66  38  35 W13G20    29.90F
TAOS           PTSUNNY   54  36  50 W16G29    29.93R

$$
NMZ402-403-502-505>509-062100-
WESTCENTRAL MOUNTAINS/SOUTHWEST MOUNTAINS

CITY           SKY/WX    TMP DP  RH WIND       PRES   REMARKS
GALLUP         MOSUNNY   62  40  44 SW14G21   29.94F
GRANTS         PTSUNNY   62  33  33 W7        29.97F
SILVER CITY      N/A     72  19  14 SW14G21   29.95F

$$
NMZ407-409-411-412-062100-
SOUTHERN DESERTS

CITY           SKY/WX    TMP DP  RH WIND       PRES   REMARKS
DEMING         SUNNY     78  20  11 SW8G25    29.89F
HOLLOMAN AFB   PTSUNNY   77  33  20 VRB6      29.85F
ALAMOGORDO     MOSUNNY   79  32  18 S13G20    29.88F
T OR C         MOSUNNY   77  32  19 S16G25    29.86F

$$
NMZ519>523-062100-
CENTRAL VALLEYS/CENTRAL HIGHLANDS

CITY           SKY/WX    TMP DP  RH WIND       PRES   REMARKS
ALBUQUERQUE    PTSUNNY   69  40  34 W12G18    29.90F
DOUBLE EAGLE   PTSUNNY   66  39  37 SW10G18   29.93F
MORIARTY ARPT  FAIR      65  35  32 SW16G25   29.94F
CLINES CORNERS PTSUNNY   62  36  37 W21G32    29.94F
BELEN          FAIR      69  34  28 W13       29.91S
SOCORRO        NOT AVBL

$$
NMZ524>526-539-540-062100-
SOUTHCENTRAL MOUNTAINS

CITY           SKY/WX    TMP DP  RH WIND       PRES   REMARKS
RUIDOSO        NOT AVBL

$$
NMZ527>531-062100-
NORTHEAST HIGHLANDS/NORTHEAST PLAINS

CITY           SKY/WX    TMP DP  RH WIND       PRES   REMARKS
LAS VEGAS      MOSUNNY   64  39  39 SW18G28   29.89F
RATON          PTSUNNY   69  36  29 W15G22    29.78F
CLAYTON        NOT AVBL

$$
NMZ532>537-062100-
EASTCENTRAL PLAINS

CITY           SKY/WX    TMP DP  RH WIND       PRES   REMARKS
TUCUMCARI      PTSUNNY   75  45  34 W25G32    29.77F
CANNON AFB     NOT AVBL
CLOVIS AIRPORT PTSUNNY   73  46  38 W18       29.86F

$$
NMZ028-029-538-062100-
SOUTHEAST PLAINS

CITY           SKY/WX    TMP DP  RH WIND       PRES   REMARKS
ROSWELL        SUNNY     80  41  24 S13       29.82F
ARTESIA        SUNNY     82  32  16 S21G29    29.84F
CARLSBAD       SUNNY     83  39  21 S10G21    29.83F
HOBBS          SUNNY     77  43  29 S14G22    29.88F


$$



USA.gov is the U.S. government's official web portal to all federal, state and local government web resources and services.